Zurück zum Katalog

STARLINK-5503

AktivKommunikationVLEO
NORAD 57257·PAYLOAD·🇺🇸 United States

Gestartet Jul 7, 2023 von Vandenberg Space Force Base

Loading…

Nächste Überflüge (nächste 24 Stunden)

TLE

AktuellSource: CelesTrak SupGP

Epoche: Sep 15, 2026, 02:03 UTC

1 57257C 23094AR  26258.08590278 -.00035393  00000+0 -12819-2 0  2581
2 57257  43.0027  30.2592 0001364 263.5825 176.3262 15.27597296    11

Verfolge STARLINK-5503 in Echtzeit mit AllMySat

Download on the App Store